Find Starlink 33622

NORAD ID: 63066 Int'l Des: 2025-035 Owner: SPXS Country: US Constellation: starlink operational
LEOCIRCULAR

当前视图

正在加载3D地球...

About Starlink 33622

Starlink 33622 (NORAD 63066) is a starlink constellation satellite (v2 mini) launched Feb 21, 2025 by SPXS of US. It operates in LEO, CIRCULAR orbit with a mass of 575.00 kg.

关于 Starlink 33622

正在加载描述...

即将过境

Passes for default location (London). Set your location on the main map for personalized predictions.

高度历史

Loading altitude history...

两行轨道根数

1 63066U 25035Q 26169.71711044 .00013520 00000-0 49974-3 0 9992
2 63066 43.0016 296.2595 0001408 273.4628 86.6063 15.27592530 75189
Epoch: Jun 18, 2026 • Age: 14 hours

当前状态

高度 482.4 km
速度 7.63 km/s
星下点 2.90°N, 81.8°W
发射日期 Feb 21, 2025
运行时间 1.3 years
类型 internet

技术详情

分类 Payload
质量 575.00 kg
干质量 530.00 kg
总质量 575.00 kg
长度 0.30 m
直径 4.10 m
跨度 29.00 m
形状 Box + pan
制造商 SPXS
平台类型 Starlink V2MO
阶段状态 In Orbit
所有者/国家 SPXS/US

Most Searched